DW2465 Weather Reports


Display with metric or nautical units.
time (UTC)temp
F
wind
direction
speed
MPH
gust
MPH
rain 1hr
in
rain 24hr
in
rain mn
in
humidity
%
barometer
mb
20260904224551 83 347 0.0 0.0 0.00 0.00 0.00 68 1010.4
20260904223105 83 19 0.0 0.0 0.00 0.00 0.00 68 1010.2
20260904221553 83 343 0.0 0.0 0.00 0.00 0.00 69 1010.2
20260904220016 82 344 0.0 0.0 0.00 0.00 0.00 70 1010.0
20260904214515 83 5 0.0 0.0 0.00 0.00 0.00 70 1010.0
20260904213010 82 41 0.0 0.0 0.00 0.00 0.00 71 1010.0
20260904211507 82 14 0.0 0.0 0.00 0.00 0.00 72 1009.9
20260904210006 82 360 0.0 0.0 0.00 0.00 0.00 72 1010.1
20260904204503 81 360 0.0 0.0 0.00 0.00 0.00 73 1010.1
20260904203032 80 342 0.0 0.0 0.00 0.00 0.00 74 1010.0
20260904201538 80 27 0.0 0.0 0.00 0.00 0.00 77 1010.2
20260904200039 79 5 0.0 0.0 0.00 0.00 0.00 79 1010.2
20260904194523 79 55 0.0 0.0 0.00 0.00 0.00 79 1010.3
20260904193025 78 65 0.0 0.0 0.00 0.00 0.00 80 1010.4
20260904191520 78 5 0.0 0.0 0.00 0.00 0.00 81 1010.4
20260904190015 77 34 0.0 0.0 0.00 0.09 0.00 83 1010.3
20260904184515 77 19 0.0 0.0 0.00 0.09 0.00 84 1010.3
20260904183015 76 24 0.0 0.0 0.00 0.09 0.00 85 1010.4
20260904181513 76 346 0.0 0.0 0.00 0.09 0.00 86 1010.4
20260904180013 75 345 0.0 0.0 0.00 0.09 0.00 87 1010.4
20260904174546 75 326 0.0 0.0 0.00 0.09 0.00 88 1010.4
20260904173045 75 344 0.0 0.0 0.00 0.09 0.00 90 1010.4
20260904171605 74 48 0.0 0.0 0.00 0.09 0.00 91 1010.3
20260904170035 74 14 0.0 0.0 0.00 0.09 0.00 91 1010.2
20260904164535 73 346 0.0 0.0 0.00 0.09 0.00 92 1009.9
20260904163047 73 348 0.0 0.0 0.00 0.09 0.00 94 1009.7
20260904161530 72 315 0.0 0.0 0.00 0.09 0.00 94 1009.7
20260904160029 72 344 0.0 0.0 0.00 0.09 0.00 94 1009.5
20260904154528 73 328 0.0 0.0 0.00 0.09 0.00 94 1009.3
20260904153032 73 329 0.0 0.0 0.00 0.09 0.00 94 1009.1
20260904151534 74 346 0.0 0.0 0.00 0.09 0.00 95 1008.9
20260904150023 74 24 0.0 0.0 0.00 0.09 0.00 95 1008.8
20260904144520 73 24 0.0 0.0 0.00 0.09 0.00 96 1008.6
20260904143017 73 24 0.0 0.0 0.00 0.09 0.00 96 1008.4
20260904141516 73 24 0.0 0.0 0.00 0.09 0.00 96 1008.4
20260904140015 72 24 0.0 0.0 0.00 0.09 0.00 96 1008.5
20260904134520 72 24 0.0 0.0 0.00 0.09 0.00 96 1008.4
20260904133012 72 24 0.0 0.0 0.00 0.09 0.00 95 1008.3
20260904131509 71 24 0.0 0.0 0.00 0.09 0.00 95 1008.4
20260904130007 71 24 0.0 0.0 0.00 0.09 0.00 95 1008.3
20260904124505 71 24 0.0 0.0 0.00 0.09 0.00 95 1008.1
20260904123005 71 24 0.0 0.0 0.00 0.09 0.00 95 1008.0
20260904121533 71 26 0.0 0.0 0.00 0.09 0.00 95 1007.6
20260904120042 71 113 0.0 0.0 0.00 0.09 0.00 95 1007.5
20260904114528 72 355 0.0 0.0 0.00 0.09 0.00 95 1007.6
20260904113025 72 5 0.0 0.0 0.00 0.09 0.00 95 1007.2
20260904111524 73 17 0.0 0.0 0.00 0.09 0.00 94 1007.2
20260904110025 73 5 0.0 0.0 0.00 0.09 0.00 94 1007.1
20260904104553 73 5 0.0 0.0 0.00 0.09 0.00 94 1007.0
20260904103051 73 5 0.0 0.0 0.00 0.09 0.00 94 1007.0
20260904101522 74 5 0.0 0.0 0.00 0.09 0.00 93 1006.9
20260904100019 74 5 0.0 0.0 0.00 0.09 0.00 93 1007.0
20260904094515 74 355 0.0 0.0 0.00 0.09 0.00 93 1007.1
20260904093013 75 160 0.0 0.0 0.00 0.09 0.00 92 1006.7
20260904091513 75 160 0.0 0.0 0.00 0.09 0.00 92 1006.6
20260904090020 75 160 0.0 0.0 0.00 0.09 0.00 92 1006.6
20260904084548 75 160 0.0 0.0 0.00 0.09 0.00 92 1006.5
20260904083040 75 160 0.0 0.0 0.00 0.09 0.00 92 1006.4
20260904081535 75 160 0.0 0.0 0.00 0.09 0.00 91 1006.4
20260904080050 76 160 0.0 0.0 0.00 0.09 0.00 90 1006.3
20260904074537 76 160 0.0 0.0 0.00 0.09 0.00 90 1006.4
20260904073032 76 160 0.0 0.0 0.00 0.09 0.00 90 1006.5
20260904071603 76 156 0.0 0.0 0.00 0.09 0.00 90 1006.5
20260904064555 77 170 0.0 0.0 0.00 0.09 0.00 89 1006.4
20260904063112 77 171 0.0 0.0 0.00 0.09 0.00 88 1006.5
20260904061553 77 153 0.0 0.0 0.00 0.09 0.00 88 1006.4
20260904060054 77 169 0.0 0.0 0.00 0.09 0.00 87 1006.5
20260904054550 77 147 0.0 0.0 0.00 0.09 0.00 87 1006.4
20260904053058 77 175 0.0 0.0 0.00 0.09 0.00 86 1006.5
20260904051544 77 157 0.0 0.0 0.00 0.09 0.00 85 1006.3
20260904050042 78 144 0.0 0.0 0.00 0.09 0.09 85 1006.2
20260904044542 78 165 0.0 0.0 0.00 0.09 0.09 84 1006.2
20260904043011 78 175 0.0 0.0 0.00 0.09 0.09 83 1006.3
20260904041510 78 163 0.0 0.0 0.00 0.09 0.09 83 1006.1
20260904040012 78 167 0.0 0.0 0.00 0.09 0.09 82 1006.2
20260904034507 78 150 0.0 0.0 0.00 0.09 0.09 82 1006.1
20260904033008 78 148 0.0 0.0 0.00 0.09 0.09 81 1006.2
20260904031506 79 144 0.0 0.0 0.00 0.09 0.09 81 1006.2
20260904030004 79 138 0.0 0.0 0.00 0.09 0.09 81 1006.4
20260904024604 79 138 0.0 0.0 0.00 0.09 0.09 80 1006.2
20260904023032 80 138 0.0 0.0 0.00 0.09 0.09 80 1006.3
20260904021546 80 119 0.0 0.0 0.00 0.09 0.09 79 1006.2
20260904020030 80 105 0.0 0.0 0.00 0.09 0.09 77 1006.1
20260904014529 81 121 0.0 0.0 0.00 0.09 0.09 76 1006.0
20260904013028 81 146 0.0 0.0 0.00 0.09 0.09 75 1005.7
20260904011528 81 110 0.0 0.0 0.00 0.09 0.09 74 1005.5
20260904010058 82 131 0.0 0.0 0.00 0.09 0.09 73 1005.5
20260904004557 83 136 0.0 0.0 0.00 0.09 0.09 70 1005.4
20260904003054 83 141 0.0 0.0 0.00 0.09 0.09 68 1005.4
20260904001553 84 139 0.0 0.0 0.00 0.09 0.09 67 1005.5
20260904000053 84 142 0.0 0.0 0.00 0.09 0.09 66 1005.7
20260903234553 85 144 0.0 0.0 0.00 0.09 0.09 65 1005.6
20260903233034 85 205 0.0 0.0 0.00 0.09 0.09 64 1005.7
20260903231538 85 161 0.0 0.0 0.00 0.09 0.09 63 1005.4
20260903230019 86 147 0.0 0.0 0.00 0.09 0.09 62 1004.9